Погода в Бехине

Чехия     49°17′50″N   14°28′09″E
темп.,
°C
ветер,
м/с
пор.,
м/с
влажн.,
%
обл.,
%
осадки,
мм/ч
давл.,
гПа
погр.,
м
24 июля, сб
сб2423:00+18юв39682 0.0 1015231
02:00+14юв23790 0.0 101553
05:00+13вюв22780 0.0 101435
08:00+18юв38655 0.0 1014296
11:00+24юв564548 0.0 10131094
14:00+27вюв44385 0.0 10121717
17:00+27вюв4439100 0.0 10111652
20:00+21в377097 0.0 1011127
25 июля, вс
вс2523:00+18в276899 0.0 1011127
02:00+18зсз1169100 0.1 101113
05:00+16ссз31193100 0.9 1011317
08:00+17юв1296100 1.1 1012101
11:00+20всв11782 0.0 1012268
14:00+25всв3252100 0.0 10111320
17:00+24св335494 0.0 1010977
20:00+21с2477100 0.1 101078
26 июля, пн
пн2623:00+17сз1190100 1.6 101211
02:00+16сз1196100 1.8 101215
05:00+15ююз119785 0.0 101211
08:00+19ссз118510 0.0 1013199
11:00+25юз11577 0.0 1013909
14:00+27ююз1151100 1.4 10121670
17:00+22сз467931 3.1 1013344
20:00+20с25865 3.2 1013204
27 июля, вт
вт2723:00+16ссз119396 0.0 101511
02:00+16зюз119592 0.0 101510
05:00+16зюз1194100 0.1 101511
08:00+18ююз1189100 0.4 101578
11:00+21з1280100 1.9 1015169
14:00+17з3597100 9.3 1015244
17:00+17сз2396100 5.1 1016171
20:00+17з119446 5.1 101519
28 июля, ср
ср2823:00+15зюз019594 0.0 101611
02:00+15зсз3996100 0.0 1016325
05:00+15ююз1194100 0.0 101717
08:00+17юз24845 0.0 1017297
11:00+22зсз45560 0.0 10171307
14:00+24зсз24440 0.0 10161566
17:00+25зюз234898 0.0 10161638
20:00+20сз22750 0.1 101731